TimeHST,TemperatureF,Dew PointF,Humidity,Sea Level PressureIn,VisibilityMPH,Wind Direction,Wind SpeedMPH,Gust SpeedMPH,PrecipitationIn,Events,Conditions,WindDirDegrees,DateUTC
12:55 AM,61.7,59.9,94,29.99,10.0,NW,3.5,-,N/A,,Partly Cloudy,310,2013-03-25 10:55:00
1:55 AM,61.0,59.2,94,29.98,10.0,Calm,Calm,-,N/A,,Clear,0,2013-03-25 11:55:00
2:55 AM,61.5,59.9,94,29.96,10.0,NW,3.5,-,N/A,,Overcast,320,2013-03-25 12:55:00
3:55 AM,61.5,59.9,94,29.94,10.0,WNW,4.6,-,N/A,,Mostly Cloudy,300,2013-03-25 13:55:00
4:55 AM,63.1,61.2,93,29.94,10.0,Calm,Calm,-,N/A,,Mostly Cloudy,0,2013-03-25 14:55:00
5:55 AM,62.2,60.1,93,29.95,10.0,WNW,4.6,-,N/A,,Scattered Clouds,290,2013-03-25 15:55:00
6:55 AM,63.1,61.2,93,29.97,10.0,WNW,3.5,-,N/A,,Overcast,300,2013-03-25 16:55:00
7:55 AM,67.6,65.3,92,29.99,10.0,West,3.5,-,N/A,,Overcast,280,2013-03-25 17:55:00
8:55 AM,72.7,67.1,83,30.01,10.0,Calm,Calm,-,N/A,,Overcast,0,2013-03-25 18:55:00
9:08 AM,71.6,66.2,83,30.01,10.0,East,3.5,-,N/A,,Overcast,90,2013-03-25 19:08:00
9:19 AM,71.6,66.2,83,30.01,10.0,ENE,4.6,-,N/A,,Mostly Cloudy,70,2013-03-25 19:19:00
9:25 AM,71.6,66.2,83,30.01,10.0,ENE,4.6,-,N/A,,Mostly Cloudy,60,2013-03-25 19:25:00
9:39 AM,71.6,66.2,83,30.01,10.0,Calm,Calm,-,N/A,,Mostly Cloudy,0,2013-03-25 19:39:00
9:55 AM,72.1,65.8,80,30.01,10.0,Calm,Calm,-,N/A,,Overcast,0,2013-03-25 19:55:00
10:15 AM,73.4,66.2,78,30.01,10.0,NNW,3.5,-,N/A,Rain,Light Rain,340,2013-03-25 20:15:00
10:44 AM,71.6,66.2,83,30.01,2.0,NNW,3.5,-,N/A,Rain,Light Rain,330,2013-03-25 20:44:00
10:45 AM,71.6,66.2,83,30.01,1.5,Calm,Calm,-,N/A,Rain,Light Rain,0,2013-03-25 20:45:00
10:49 AM,71.6,66.2,83,30.01,1.0,North,3.5,-,N/A,Rain,Heavy Rain,360,2013-03-25 20:49:00
10:53 AM,71.6,66.2,83,30.01,1.2,Calm,Calm,-,N/A,Rain,Rain,0,2013-03-25 20:53:00
10:55 AM,70.7,65.5,83,30.01,2.0,Calm,Calm,-,0.12,Rain,Rain,0,2013-03-25 20:55:00
10:57 AM,69.8,66.2,88,30.01,3.0,Calm,Calm,-,N/A,Rain,Rain,0,2013-03-25 20:57:00
11:38 AM,73.4,68.0,83,30.00,10.0,Calm,Calm,-,N/A,,Mostly Cloudy,0,2013-03-25 21:38:00
11:55 AM,73.6,66.4,78,29.99,10.0,East,3.5,-,0.01,,Light Drizzle,80,2013-03-25 21:55:00
12:37 PM,73.4,68.0,83,29.98,10.0,SE,4.6,-,N/A,,Mostly Cloudy,130,2013-03-25 22:37:00
12:55 PM,74.1,67.8,81,29.97,10.0,East,5.8,-,0.02,,Overcast,100,2013-03-25 22:55:00
12:58 PM,73.4,68.0,83,29.96,10.0,ESE,8.1,-,N/A,,Overcast,110,2013-03-25 22:58:00
1:09 PM,73.4,68.0,83,29.96,10.0,ESE,6.9,-,N/A,,Overcast,120,2013-03-25 23:09:00
1:17 PM,75.2,68.0,78,29.95,10.0,ESE,6.9,-,N/A,,Mostly Cloudy,110,2013-03-25 23:17:00
1:18 PM,75.2,68.0,78,29.95,10.0,ESE,8.1,-,N/A,,Overcast,110,2013-03-25 23:18:00
1:55 PM,75.2,67.3,76,29.94,10.0,Variable,4.6,-,N/A,,Overcast,0,2013-03-25 23:55:00
2:44 PM,73.4,66.2,78,29.94,10.0,Calm,Calm,-,N/A,,Overcast,0,2013-03-26 00:44:00
2:55 PM,73.0,66.0,79,29.94,10.0,NE,6.9,-,N/A,,Overcast,40,2013-03-26 00:55:00
3:55 PM,72.3,66.4,82,29.93,10.0,NE,6.9,-,N/A,,Overcast,40,2013-03-26 01:55:00
4:00 PM,71.6,66.2,83,29.93,10.0,NE,8.1,-,N/A,,Overcast,50,2013-03-26 02:00:00
4:55 PM,72.5,65.8,80,29.93,10.0,SSE,4.6,-,N/A,,Overcast,150,2013-03-26 02:55:00
5:52 PM,71.6,64.4,78,29.95,10.0,ENE,4.6,-,N/A,,Light Drizzle,60,2013-03-26 03:52:00
5:55 PM,70.7,64.0,79,29.95,10.0,ENE,4.6,-,0.00,Rain,Light Rain,70,2013-03-26 03:55:00
6:16 PM,69.8,64.4,83,29.96,10.0,ENE,3.5,-,N/A,,Overcast,60,2013-03-26 04:16:00
6:29 PM,71.6,64.4,78,29.96,10.0,North,3.5,-,N/A,,Light Drizzle,360,2013-03-26 04:29:00
6:48 PM,69.8,64.4,83,29.97,10.0,NE,5.8,-,N/A,,Overcast,40,2013-03-26 04:48:00
6:55 PM,70.2,64.4,82,29.97,10.0,NE,4.6,-,0.00,,Overcast,40,2013-03-26 04:55:00
7:55 PM,69.8,63.9,81,29.98,10.0,Calm,Calm,-,N/A,,Mostly Cloudy,0,2013-03-26 05:55:00
8:55 PM,69.6,64.0,82,29.99,10.0,Calm,Calm,-,N/A,,Overcast,0,2013-03-26 06:55:00
9:55 PM,67.5,63.0,85,30.00,10.0,Calm,Calm,-,N/A,,Partly Cloudy,0,2013-03-26 07:55:00
10:55 PM,64.9,61.9,90,30.01,10.0,NW,3.5,-,N/A,,Clear,310,2013-03-26 08:55:00
11:55 PM,63.5,61.0,91,30.00,10.0,WNW,4.6,-,N/A,,Partly Cloudy,300,2013-03-26 09:55:00